Location: Vancouver
(49.2500°N, 123.1330°W)
Time: 19:52:44
(UTC-08:00)

A-11 Canister half - Visible Passes

Search period start: 23 February 2017 00:00
Search period end: 05 March 2017 00:00
Orbit: 1528 x 1682 km, 47.3° (Epoch: 23 February)

Date Brightness Start Highest point End Pass type
(mag) Time Alt. Az. Time Alt. Az. Time Alt. Az.
23 Feb 9.4 18:40:48 10° SW 18:49:43 47° SSE 18:57:16 14° E visible
23 Feb 8.8 20:44:38 10° WSW 20:54:04 77° S 20:55:35 65° ESE visible
23 Feb 10.1 22:49:34 10° W 22:53:54 32° W 22:53:54 32° W visible
24 Feb 9.5 18:19:18 10° SW 18:28:11 45° SE 18:36:52 10° ENE visible
24 Feb 8.8 20:23:03 10° WSW 20:32:30 76° SSE 20:35:19 51° E visible
24 Feb 9.7 22:27:59 10° W 22:33:37 42° W 22:33:37 42° W visible
25 Feb 8.9 20:01:28 10° WSW 20:10:57 75° SSE 20:15:00 39° E visible
25 Feb 9.3 22:06:23 10° W 22:13:19 54° W 22:13:19 54° W visible
26 Feb 11.0 00:11:25 10° WNW 00:11:37 11° WNW 00:11:37 11° WNW visible
26 Feb 8.9 19:39:53 10° WSW 19:49:22 74° SSE 19:54:40 30° E visible
26 Feb 9.0 21:44:48 10° W 21:52:58 68° WSW 21:52:58 68° WSW visible
26 Feb 10.8 23:49:49 10° WNW 23:51:17 16° W 23:51:17 16° W visible
27 Feb 9.0 19:18:18 10° WSW 19:27:48 73° SSE 19:34:19 23° E visible
27 Feb 8.8 21:23:13 10° W 21:32:37 77° S 21:32:37 77° S visible
27 Feb 10.5 23:28:13 10° WNW 23:30:55 21° W 23:30:55 21° W visible
28 Feb 9.0 18:56:43 10° WSW 19:06:15 72° SSE 19:13:56 17° E visible
28 Feb 8.8 21:01:37 10° W 21:11:03 78° S 21:12:15 69° SE visible
28 Feb 10.3 23:06:37 10° WNW 23:10:33 27° W 23:10:33 27° W visible
01 Mar 9.1 18:35:09 10° WSW 18:44:40 71° SSE 18:53:34 12° E visible
01 Mar 8.9 20:40:01 10° W 20:49:29 79° S 20:51:52 56° ESE visible
01 Mar 10.0 22:45:01 10° WNW 22:50:10 34° W 22:50:10 34° W visible
02 Mar 9.2 18:13:33 10° WSW 18:23:07 70° SSE 18:32:24 10° E visible
02 Mar 8.9 20:18:25 10° W 20:27:55 79° S 20:31:29 44° ESE visible
02 Mar 9.6 22:23:26 10° WNW 22:29:47 42° WSW 22:29:47 42° WSW visible
03 Mar 8.9 19:56:49 10° W 20:06:21 80° S 20:11:06 34° ESE visible
03 Mar 9.4 22:01:50 10° WNW 22:09:24 49° WSW 22:09:24 49° WSW visible
04 Mar 9.0 19:35:13 10° W 19:44:46 80° S 19:50:43 26° ESE visible
04 Mar 9.2 21:40:15 10° WNW 21:49:02 55° SW 21:49:02 55° SW visible
04 Mar 10.9 23:46:10 10° W 23:47:20 13° W 23:47:20 13° W visible
